| time (UTC) | temp F | wind direction | speed MPH | gust MPH | rain 1hr in | rain 24hr in | rain mn in | humidity % | barometer mb |
| 20260906161739 | 74 | 202 | 6.0 | 8.0 | 0.00 | 0.00 | 0.00 | 85 | 1233.4 |
| 20260906161238 | 75 | 145 | 5.0 | 8.0 | 0.00 | 0.00 | 0.00 | 85 | 1233.4 |
| 20260906160737 | 74 | 25 | 5.0 | 6.0 | 0.00 | 0.00 | 0.00 | 86 | 1233.4 |
| 20260906160237 | 74 | 155 | 4.0 | 6.0 | 0.00 | 0.00 | 0.00 | 86 | 1233.4 |
| 20260906155734 | 74 | 67 | 6.0 | 8.0 | 0.00 | 0.00 | 0.00 | 85 | 1233.4 |
| 20260906155230 | 74 | 194 | 1.0 | 2.0 | 0.00 | 0.00 | 0.00 | 86 | 1233.4 |
| 20260906154725 | 74 | 139 | 8.0 | 11.0 | 0.00 | 0.00 | 0.00 | 85 | 1233.4 |
| 20260906154220 | 74 | 172 | 5.0 | 6.0 | 0.00 | 0.00 | 0.00 | 86 | 1233.4 |
| 20260906153718 | 73 | 160 | 5.0 | 6.0 | 0.00 | 0.00 | 0.00 | 87 | 1233.4 |
| 20260906153213 | 74 | 81 | 6.0 | 6.0 | 0.00 | 0.00 | 0.00 | 87 | 1233.4 |
| 20260906152708 | 73 | 142 | 5.0 | 6.0 | 0.00 | 0.00 | 0.00 | 87 | 1233.4 |
| 20260906152203 | 73 | 161 | 8.0 | 10.0 | 0.00 | 0.00 | 0.00 | 88 | 1233.4 |
| 20260906151657 | 73 | 127 | 5.0 | 6.0 | 0.00 | 0.00 | 0.00 | 88 | 1233.4 |
| 20260906151154 | 73 | 150 | 3.0 | 5.0 | 0.00 | 0.00 | 0.00 | 88 | 1233.4 |
| 20260906150649 | 73 | 49 | 7.0 | 8.0 | 0.00 | 0.00 | 0.00 | 89 | 1233.4 |
| 20260906150144 | 73 | 87 | 6.0 | 8.0 | 0.00 | 0.00 | 0.00 | 89 | 1233.4 |
| 20260906145643 | 73 | 156 | 5.0 | 6.0 | 0.00 | 0.00 | 0.00 | 88 | 1233.4 |
| 20260906145143 | 73 | 196 | 5.0 | 6.0 | 0.00 | 0.00 | 0.00 | 89 | 1233.4 |
| 20260906144637 | 72 | 170 | 6.0 | 8.0 | 0.00 | 0.00 | 0.00 | 90 | 1233.4 |
| 20260906144132 | 73 | 221 | 3.0 | 5.0 | 0.00 | 0.00 | 0.00 | 89 | 1233.4 |
| 20260906143631 | 72 | 153 | 9.0 | 11.0 | 0.00 | 0.00 | 0.00 | 89 | 1233.4 |
| 20260906143129 | 72 | 68 | 4.0 | 5.0 | 0.00 | 0.00 | 0.00 | 90 | 1233.4 |
| 20260906142628 | 72 | 68 | 4.0 | 6.0 | 0.00 | 0.00 | 0.00 | 91 | 1233.4 |
| 20260906142123 | 72 | 47 | 0.0 | 2.0 | 0.00 | 0.00 | 0.00 | 91 | 1233.4 |
| 20260906141622 | 71 | 35 | 4.0 | 8.0 | 0.00 | 0.00 | 0.00 | 91 | 1233.4 |
| 20260906141118 | 71 | 153 | 4.0 | 5.0 | 0.00 | 0.00 | 0.00 | 91 | 1233.4 |
| 20260906140617 | 71 | 8 | 1.0 | 3.0 | 0.00 | 0.00 | 0.00 | 91 | 1233.4 |
| 20260906140112 | 71 | 113 | 5.0 | 6.0 | 0.00 | 0.00 | 0.00 | 92 | 1233.4 |
| 20260906135609 | 71 | 170 | 4.0 | 5.0 | 0.00 | 0.00 | 0.00 | 91 | 1233.4 |
| 20260906135105 | 71 | 109 | 7.0 | 10.0 | 0.00 | 0.00 | 0.00 | 91 | 1233.4 |
| 20260906134600 | 71 | 157 | 4.0 | 5.0 | 0.00 | 0.00 | 0.00 | 91 | 1233.4 |
| 20260906134101 | 71 | 28 | 3.0 | 6.0 | 0.00 | 0.00 | 0.00 | 92 | 1233.4 |
| 20260906133556 | 70 | 58 | 6.0 | 6.0 | 0.00 | 0.00 | 0.00 | 93 | 1233.4 |
| 20260906133051 | 70 | 95 | 3.0 | 3.0 | 0.00 | 0.00 | 0.00 | 94 | 1233.4 |
| 20260906132546 | 70 | 112 | 2.0 | 3.0 | 0.00 | 0.00 | 0.00 | 94 | 1233.4 |
| 20260906132042 | 70 | 96 | 6.0 | 8.0 | 0.00 | 0.00 | 0.00 | 94 | 1233.4 |
| 20260906131537 | 69 | 108 | 3.0 | 3.0 | 0.00 | 0.00 | 0.00 | 95 | 1233.4 |
| 20260906131032 | 69 | 30 | 2.0 | 3.0 | 0.00 | 0.00 | 0.00 | 95 | 1233.4 |
| 20260906130532 | 69 | 210 | 2.0 | 5.0 | 0.00 | 0.00 | 0.00 | 95 | 1233.4 |
| 20260906130027 | 69 | 211 | 2.0 | 3.0 | 0.00 | 0.00 | 0.00 | 95 | 1233.4 |
| 20260906125525 | 69 | 85 | 2.0 | 3.0 | 0.00 | 0.00 | 0.00 | 95 | 1233.4 |
| 20260906125025 | 69 | 125 | 2.0 | 3.0 | 0.00 | 0.00 | 0.00 | 95 | 1233.4 |
| 20260906124520 | 69 | 180 | 3.0 | 5.0 | 0.00 | 0.00 | 0.00 | 96 | 1233.4 |
| 20260906124015 | 69 | 79 | 4.0 | 5.0 | 0.00 | 0.00 | 0.00 | 95 | 1233.4 |
| 20260906123514 | 69 | 48 | 2.0 | 3.0 | 0.00 | 0.00 | 0.00 | 96 | 1233.4 |
| 20260906123009 | 68 | 52 | 1.0 | 3.0 | 0.00 | 0.00 | 0.00 | 97 | 1233.4 |
| 20260906122503 | 68 | 72 | 3.0 | 5.0 | 0.00 | 0.00 | 0.00 | 97 | 1233.4 |
| 20260906121959 | 68 | 103 | 6.0 | 6.0 | 0.00 | 0.00 | 0.00 | 97 | 1233.4 |
| 20260906121455 | 68 | 30 | 2.0 | 3.0 | 0.00 | 0.00 | 0.00 | 98 | 1233.4 |
| 20260906120952 | 68 | 106 | 4.0 | 5.0 | 0.00 | 0.00 | 0.00 | 98 | 1233.4 |
| 20260906120447 | 68 | 87 | 2.0 | 5.0 | 0.00 | 0.00 | 0.00 | 98 | 1233.4 |
| 20260906115943 | 68 | 49 | 1.0 | 3.0 | 0.00 | 0.00 | 0.00 | 98 | 1233.4 |
| 20260906115438 | 68 | 32 | 1.0 | 2.0 | 0.00 | 0.00 | 0.00 | 97 | 1233.4 |
| 20260906114939 | 69 | 72 | 1.0 | 3.0 | 0.00 | 0.00 | 0.00 | 97 | 1233.4 |
| 20260906114438 | 69 | 336 | 0.0 | 0.0 | 0.00 | 0.00 | 0.00 | 97 | 1233.4 |
| 20260906113935 | 69 | 161 | 4.0 | 5.0 | 0.00 | 0.00 | 0.00 | 96 | 1233.4 |
| 20260906113433 | 69 | 48 | 2.0 | 3.0 | 0.00 | 0.00 | 0.00 | 96 | 1233.4 |
| 20260906112929 | 69 | 155 | 2.0 | 3.0 | 0.00 | 0.00 | 0.00 | 96 | 1233.4 |
| 20260906112424 | 69 | 143 | 2.0 | 3.0 | 0.00 | 0.00 | 0.00 | 96 | 1233.4 |
| 20260906111920 | 69 | 19 | 2.0 | 3.0 | 0.00 | 0.00 | 0.00 | 96 | 1233.4 |
| 20260906111419 | 69 | 93 | 1.0 | 3.0 | 0.00 | 0.00 | 0.00 | 96 | 1233.4 |
| 20260906110914 | 69 | 82 | 2.0 | 3.0 | 0.00 | 0.00 | 0.00 | 96 | 1233.4 |
| 20260906110409 | 69 | 293 | 1.0 | 2.0 | 0.00 | 0.00 | 0.00 | 96 | 1233.4 |
| 20260906105909 | 69 | 198 | 1.0 | 2.0 | 0.00 | 0.00 | 0.00 | 96 | 1233.4 |
| 20260906105404 | 70 | 64 | 0.0 | 2.0 | 0.00 | 0.00 | 0.00 | 96 | 1233.4 |
| 20260906104900 | 70 | 191 | 2.0 | 2.0 | 0.00 | 0.00 | 0.00 | 96 | 1233.4 |
| 20260906104358 | 70 | 231 | 1.0 | 2.0 | 0.00 | 0.00 | 0.00 | 96 | 1233.4 |
| 20260906103857 | 70 | 228 | 1.0 | 2.0 | 0.00 | 0.00 | 0.00 | 96 | 1233.4 |
| 20260906103356 | 70 | 274 | 0.0 | 0.0 | 0.00 | 0.00 | 0.00 | 97 | 1233.4 |
| 20260906102852 | 70 | 307 | 1.0 | 2.0 | 0.00 | 0.00 | 0.00 | 96 | 1233.4 |
| 20260906102351 | 70 | 286 | 1.0 | 2.0 | 0.00 | 0.00 | 0.00 | 95 | 1233.4 |
| 20260906101846 | 70 | 106 | 2.0 | 3.0 | 0.00 | 0.00 | 0.00 | 95 | 1233.4 |
| 20260906101341 | 70 | 126 | 4.0 | 5.0 | 0.00 | 0.00 | 0.00 | 95 | 1233.4 |
| 20260906100837 | 70 | 311 | 2.0 | 2.0 | 0.00 | 0.00 | 0.00 | 96 | 1233.4 |
| 20260906100335 | 70 | 145 | 5.0 | 6.0 | 0.00 | 0.00 | 0.00 | 96 | 1233.4 |
| 20260906095831 | 70 | 80 | 4.0 | 6.0 | 0.00 | 0.00 | 0.00 | 96 | 1233.4 |
| 20260906095326 | 70 | 175 | 3.0 | 5.0 | 0.00 | 0.00 | 0.00 | 96 | 1233.4 |
| 20260906094826 | 70 | 166 | 3.0 | 5.0 | 0.00 | 0.00 | 0.00 | 96 | 1233.4 |
| 20260906094321 | 70 | 209 | 2.0 | 2.0 | 0.00 | 0.00 | 0.00 | 96 | 1233.4 |
| 20260906093817 | 70 | 85 | 2.0 | 3.0 | 0.00 | 0.00 | 0.00 | 96 | 1233.4 |
| 20260906093313 | 70 | 69 | 2.0 | 3.0 | 0.00 | 0.00 | 0.00 | 96 | 1233.4 |
| 20260906092808 | 70 | 65 | 2.0 | 2.0 | 0.00 | 0.00 | 0.00 | 96 | 1233.4 |
| 20260906092308 | 71 | 72 | 2.0 | 3.0 | 0.00 | 0.00 | 0.00 | 95 | 1233.4 |
| 20260906091803 | 71 | 149 | 4.0 | 5.0 | 0.00 | 0.00 | 0.00 | 95 | 1233.4 |
| 20260906091259 | 71 | 222 | 0.0 | 2.0 | 0.00 | 0.00 | 0.00 | 95 | 1233.4 |
| 20260906090756 | 71 | 126 | 4.0 | 5.0 | 0.00 | 0.00 | 0.00 | 95 | 1233.4 |
| 20260906090255 | 71 | 109 | 6.0 | 8.0 | 0.00 | 0.00 | 0.00 | 95 | 1233.4 |
| 20260906085754 | 71 | 74 | 7.0 | 8.0 | 0.00 | 0.00 | 0.00 | 95 | 1233.4 |
| 20260906085253 | 71 | 228 | 2.0 | 3.0 | 0.00 | 0.00 | 0.00 | 96 | 1233.4 |
| 20260906084749 | 71 | 25 | 3.0 | 5.0 | 0.00 | 0.00 | 0.00 | 96 | 1233.4 |
| 20260906084248 | 71 | 175 | 5.0 | 8.0 | 0.00 | 0.00 | 0.00 | 96 | 1233.4 |
| 20260906083743 | 71 | 87 | 7.0 | 8.0 | 0.00 | 0.00 | 0.00 | 96 | 1233.4 |
| 20260906083239 | 71 | 74 | 2.0 | 5.0 | 0.00 | 0.00 | 0.00 | 97 | 1233.4 |
| 20260906082733 | 71 | 99 | 1.0 | 2.0 | 0.00 | 0.00 | 0.00 | 97 | 1233.4 |
| 20260906082228 | 70 | 67 | 2.0 | 3.0 | 0.00 | 0.00 | 0.00 | 97 | 1233.4 |
| 20260906081725 | 71 | 161 | 1.0 | 3.0 | 0.00 | 0.00 | 0.00 | 97 | 1233.4 |
| 20260906081219 | 71 | 63 | 5.0 | 6.0 | 0.00 | 0.00 | 0.00 | 97 | 1233.4 |
| 20260906080716 | 71 | 55 | 2.0 | 3.0 | 0.00 | 0.00 | 0.00 | 96 | 1233.4 |
| 20260906080212 | 71 | 79 | 4.0 | 5.0 | 0.00 | 0.00 | 0.00 | 96 | 1233.4 |
| 20260906075712 | 71 | 24 | 1.0 | 2.0 | 0.00 | 0.00 | 0.00 | 96 | 1233.4 |
| 20260906075206 | 71 | 182 | 1.0 | 2.0 | 0.00 | 0.00 | 0.00 | 96 | 1233.4 |
| 20260906074701 | 71 | 131 | 3.0 | 3.0 | 0.00 | 0.00 | 0.00 | 95 | 1233.4 |
| 20260906074201 | 71 | 198 | 2.0 | 3.0 | 0.00 | 0.00 | 0.00 | 95 | 1233.4 |
| 20260906073656 | 71 | 90 | 1.0 | 2.0 | 0.00 | 0.00 | 0.00 | 95 | 1233.4 |
| 20260906073151 | 72 | 218 | 4.0 | 5.0 | 0.00 | 0.00 | 0.00 | 95 | 1233.4 |
| 20260906072646 | 72 | 60 | 1.0 | 2.0 | 0.00 | 0.00 | 0.00 | 95 | 1233.4 |
| 20260906072142 | 72 | 72 | 6.0 | 10.0 | 0.00 | 0.00 | 0.00 | 94 | 1233.4 |
| 20260906071638 | 72 | 90 | 3.0 | 5.0 | 0.00 | 0.00 | 0.00 | 94 | 1233.4 |
| 20260906071137 | 72 | 113 | 3.0 | 3.0 | 0.00 | 0.00 | 0.00 | 94 | 1233.4 |
| 20260906070635 | 72 | 72 | 3.0 | 5.0 | 0.00 | 0.00 | 0.00 | 94 | 1233.4 |
| 20260906070130 | 72 | 85 | 4.0 | 5.0 | 0.00 | 0.00 | 0.00 | 93 | 1233.4 |
| 20260906065629 | 73 | 104 | 3.0 | 3.0 | 0.00 | 0.00 | 0.00 | 93 | 1233.4 |
| 20260906065125 | 72 | 149 | 3.0 | 5.0 | 0.00 | 0.00 | 0.00 | 94 | 1233.4 |
| 20260906064620 | 72 | 89 | 3.0 | 3.0 | 0.00 | 0.00 | 0.00 | 94 | 1233.4 |
| 20260906064115 | 72 | 286 | 0.0 | 0.0 | 0.00 | 0.00 | 0.00 | 94 | 1233.4 |
| 20260906063616 | 73 | 228 | 2.0 | 3.0 | 0.00 | 0.00 | 0.00 | 93 | 1233.4 |
| 20260906063112 | 73 | 4 | 2.0 | 3.0 | 0.00 | 0.00 | 0.00 | 93 | 1233.4 |
| 20260906062607 | 73 | 345 | 1.0 | 2.0 | 0.00 | 0.00 | 0.00 | 93 | 1233.4 |
| 20260906062106 | 73 | 319 | 1.0 | 2.0 | 0.00 | 0.00 | 0.00 | 93 | 1233.4 |
| 20260906061603 | 73 | 359 | 1.0 | 2.0 | 0.00 | 0.00 | 0.00 | 93 | 1233.4 |
| 20260906061102 | 73 | 312 | 0.0 | 2.0 | 0.00 | 0.00 | 0.00 | 93 | 1233.4 |
| 20260906060559 | 73 | 264 | 1.0 | 2.0 | 0.00 | 0.00 | 0.00 | 93 | 1233.4 |
| 20260906060055 | 73 | 333 | 4.0 | 5.0 | 0.00 | 0.00 | 0.00 | 93 | 1233.4 |
| 20260906055551 | 73 | 64 | 2.0 | 3.0 | 0.00 | 0.00 | 0.00 | 93 | 1233.4 |
| 20260906055046 | 73 | 17 | 1.0 | 2.0 | 0.00 | 0.00 | 0.00 | 93 | 1233.4 |
| 20260906054541 | 73 | 283 | 0.0 | 2.0 | 0.00 | 0.00 | 0.00 | 93 | 1233.4 |
| 20260906054036 | 73 | 301 | 0.0 | 0.0 | 0.00 | 0.00 | 0.00 | 92 | 1233.4 |
| 20260906053532 | 73 | 59 | 2.0 | 3.0 | 0.00 | 0.00 | 0.00 | 93 | 1233.4 |
| 20260906053028 | 73 | 65 | 1.0 | 2.0 | 0.00 | 0.00 | 0.00 | 93 | 1233.4 |
| 20260906052523 | 73 | 305 | 2.0 | 3.0 | 0.00 | 0.00 | 0.00 | 92 | 1233.4 |
| 20260906052020 | 74 | 47 | 2.0 | 5.0 | 0.00 | 0.00 | 0.00 | 92 | 1233.4 |
| 20260906051516 | 74 | 192 | 1.0 | 2.0 | 0.00 | 0.00 | 0.00 | 91 | 1233.4 |
| 20260906051011 | 74 | 177 | 1.0 | 2.0 | 0.00 | 0.00 | 0.00 | 92 | 1233.4 |
| 20260906050511 | 74 | 164 | 2.0 | 3.0 | 0.00 | 0.00 | 0.00 | 92 | 1233.4 |
| 20260906050006 | 74 | 184 | 2.0 | 2.0 | 0.00 | 0.00 | 0.00 | 91 | 1233.4 |
| 20260906045504 | 74 | 68 | 2.0 | 3.0 | 0.00 | 0.00 | 0.00 | 91 | 1233.4 |
| 20260906045000 | 74 | 47 | 2.0 | 3.0 | 0.00 | 0.00 | 0.00 | 91 | 1233.4 |
| 20260906044455 | 74 | 74 | 4.0 | 8.0 | 0.00 | 0.00 | 0.00 | 91 | 1233.4 |
| 20260906043951 | 74 | 32 | 1.0 | 2.0 | 0.00 | 0.00 | 0.00 | 91 | 1233.4 |
| 20260906043447 | 74 | 40 | 5.0 | 6.0 | 0.00 | 0.00 | 0.00 | 91 | 1233.4 |
| 20260906042942 | 74 | 80 | 1.0 | 3.0 | 0.00 | 0.00 | 0.00 | 91 | 1233.4 |
| 20260906042441 | 75 | 328 | 0.0 | 2.0 | 0.00 | 0.00 | 0.00 | 91 | 1233.4 |
| 20260906041936 | 75 | 349 | 2.0 | 3.0 | 0.00 | 0.00 | 0.00 | 91 | 1233.4 |
| 20260906041433 | 75 | 235 | 0.0 | 0.0 | 0.00 | 0.00 | 0.00 | 90 | 1233.4 |
| 20260906040932 | 75 | 173 | 2.0 | 3.0 | 0.00 | 0.00 | 0.00 | 90 | 1233.4 |
| 20260906040427 | 75 | 222 | 2.0 | 3.0 | 0.00 | 0.00 | 0.00 | 90 | 1233.4 |
| 20260906035922 | 75 | 294 | 0.0 | 0.0 | 0.00 | 0.00 | 0.00 | 89 | 1233.4 |
| 20260906035418 | 75 | 145 | 0.0 | 2.0 | 0.00 | 0.00 | 0.00 | 89 | 1233.4 |
| 20260906034913 | 75 | 53 | 1.0 | 2.0 | 0.00 | 0.00 | 0.00 | 88 | 1233.4 |
| 20260906034413 | 75 | 18 | 1.0 | 2.0 | 0.00 | 0.00 | 0.00 | 88 | 1233.4 |
| 20260906033909 | 75 | 122 | 3.0 | 3.0 | 0.00 | 0.00 | 0.00 | 89 | 1233.4 |
| 20260906033408 | 75 | 48 | 3.0 | 5.0 | 0.00 | 0.00 | 0.00 | 89 | 1233.4 |
| 20260906032905 | 75 | 83 | 2.0 | 3.0 | 0.00 | 0.00 | 0.00 | 89 | 1233.4 |
| 20260906032401 | 75 | 183 | 0.0 | 2.0 | 0.00 | 0.00 | 0.00 | 89 | 1233.4 |
| 20260906031901 | 75 | 195 | 3.0 | 5.0 | 0.00 | 0.00 | 0.00 | 89 | 1233.4 |
| 20260906031356 | 75 | 26 | 1.0 | 3.0 | 0.00 | 0.00 | 0.00 | 90 | 1233.4 |
| 20260906030851 | 76 | 56 | 1.0 | 2.0 | 0.00 | 0.00 | 0.00 | 90 | 1233.4 |
| 20260906030347 | 76 | 105 | 3.0 | 5.0 | 0.00 | 0.00 | 0.00 | 90 | 1233.4 |
| 20260906025846 | 76 | 32 | 2.0 | 3.0 | 0.00 | 0.00 | 0.00 | 90 | 1233.4 |
| 20260906025341 | 76 | 43 | 3.0 | 5.0 | 0.00 | 0.00 | 0.00 | 90 | 1233.4 |
| 20260906024840 | 76 | 64 | 2.0 | 3.0 | 0.00 | 0.00 | 0.00 | 91 | 1233.4 |
| 20260906024339 | 76 | 52 | 2.0 | 5.0 | 0.00 | 0.00 | 0.00 | 90 | 1233.4 |
| 20260906023834 | 76 | 173 | 0.0 | 0.0 | 0.00 | 0.00 | 0.00 | 90 | 1233.4 |
| 20260906023330 | 76 | 133 | 1.0 | 3.0 | 0.00 | 0.00 | 0.00 | 90 | 1233.4 |
| 20260906022825 | 76 | 73 | 3.0 | 6.0 | 0.00 | 0.00 | 0.00 | 90 | 1233.4 |
| 20260906022321 | 76 | 67 | 3.0 | 5.0 | 0.00 | 0.00 | 0.00 | 90 | 1233.4 |
| 20260906021816 | 77 | 48 | 2.0 | 3.0 | 0.00 | 0.00 | 0.00 | 90 | 1233.4 |
| 20260906021315 | 77 | 77 | 5.0 | 6.0 | 0.00 | 0.00 | 0.00 | 89 | 1233.4 |
| 20260906020816 | 77 | 126 | 3.0 | 3.0 | 0.00 | 0.00 | 0.00 | 89 | 1233.4 |
| 20260906020315 | 77 | 43 | 3.0 | 5.0 | 0.00 | 0.00 | 0.00 | 89 | 1233.4 |
| 20260906015810 | 77 | 61 | 1.0 | 2.0 | 0.00 | 0.00 | 0.00 | 89 | 1233.4 |
| 20260906015309 | 77 | 317 | 3.0 | 6.0 | 0.00 | 0.00 | 0.00 | 89 | 1233.4 |
| 20260906014809 | 77 | 69 | 3.0 | 5.0 | 0.00 | 0.00 | 0.00 | 89 | 1233.4 |
| 20260906014304 | 77 | 41 | 2.0 | 3.0 | 0.00 | 0.00 | 0.00 | 89 | 1233.4 |
| 20260906013801 | 77 | 307 | 1.0 | 2.0 | 0.00 | 0.00 | 0.00 | 89 | 1233.4 |
| 20260906013301 | 77 | 277 | 0.0 | 0.0 | 0.00 | 0.00 | 0.00 | 89 | 1233.4 |
| 20260906012756 | 77 | 246 | 0.0 | 0.0 | 0.00 | 0.00 | 0.00 | 89 | 1233.4 |
| 20260906012251 | 77 | 261 | 0.0 | 0.0 | 0.00 | 0.00 | 0.00 | 89 | 1233.4 |
| 20260906011746 | 77 | 285 | 0.0 | 2.0 | 0.00 | 0.00 | 0.00 | 89 | 1233.4 |
| 20260906011246 | 77 | 185 | 1.0 | 2.0 | 0.00 | 0.00 | 0.00 | 88 | 1233.4 |
| 20260906010742 | 77 | 330 | 0.0 | 0.0 | 0.00 | 0.00 | 0.00 | 88 | 1233.4 |
| 20260906010238 | 77 | 337 | 1.0 | 3.0 | 0.00 | 0.00 | 0.00 | 89 | 1233.4 |
| 20260906005733 | 78 | 294 | 1.0 | 2.0 | 0.00 | 0.00 | 0.00 | 87 | 1233.4 |
| 20260906005232 | 78 | 204 | 1.0 | 2.0 | 0.00 | 0.00 | 0.00 | 87 | 1233.4 |
| 20260906004731 | 78 | 329 | 2.0 | 2.0 | 0.00 | 0.00 | 0.00 | 86 | 1233.4 |
| 20260906004227 | 79 | 321 | 1.0 | 2.0 | 0.00 | 0.00 | 0.00 | 87 | 1233.4 |
| 20260906003721 | 79 | 325 | 1.0 | 2.0 | 0.00 | 0.00 | 0.00 | 86 | 1233.4 |
| 20260906003217 | 79 | 329 | 0.0 | 0.0 | 0.00 | 0.00 | 0.00 | 86 | 1233.4 |
| 20260906002717 | 79 | 169 | 0.0 | 2.0 | 0.00 | 0.00 | 0.00 | 86 | 1233.4 |
| 20260906002212 | 79 | 11 | 2.0 | 3.0 | 0.00 | 0.00 | 0.00 | 86 | 1233.4 |
| 20260906001707 | 79 | 333 | 1.0 | 2.0 | 0.00 | 0.00 | 0.00 | 85 | 1233.4 |
| 20260906001207 | 80 | 262 | 0.0 | 0.0 | 0.00 | 0.00 | 0.00 | 85 | 1233.4 |
| 20260906000703 | 80 | 276 | 0.0 | 2.0 | 0.00 | 0.00 | 0.00 | 84 | 1233.4 |
| 20260906000158 | 80 | 292 | 1.0 | 2.0 | 0.00 | 0.00 | 0.00 | 84 | 1233.4 |
| 20260905235657 | 80 | 56 | 3.0 | 5.0 | 0.00 | 0.00 | 0.00 | 84 | 1233.4 |
| 20260905235152 | 81 | 152 | 3.0 | 5.0 | 0.00 | 0.00 | 0.00 | 83 | 1233.4 |
| 20260905234647 | 81 | 103 | 4.0 | 6.0 | 0.00 | 0.00 | 0.00 | 83 | 1233.4 |
| 20260905234143 | 81 | 196 | 1.0 | 2.0 | 0.00 | 0.00 | 0.00 | 82 | 1233.4 |
| 20260905233638 | 81 | 297 | 1.0 | 2.0 | 0.00 | 0.00 | 0.00 | 81 | 1233.4 |
| 20260905233137 | 81 | 181 | 2.0 | 3.0 | 0.00 | 0.00 | 0.00 | 81 | 1233.4 |
| 20260905232632 | 81 | 340 | 2.0 | 3.0 | 0.00 | 0.00 | 0.00 | 81 | 1233.4 |
| 20260905232128 | 82 | 34 | 3.0 | 5.0 | 0.00 | 0.00 | 0.00 | 81 | 1233.4 |
| 20260905231623 | 82 | 109 | 4.0 | 8.0 | 0.00 | 0.00 | 0.00 | 81 | 1233.4 |
| 20260905231119 | 82 | 133 | 3.0 | 5.0 | 0.00 | 0.00 | 0.00 | 81 | 1233.4 |
| 20260905230615 | 83 | 10 | 3.0 | 6.0 | 0.00 | 0.00 | 0.00 | 80 | 1233.4 |
| 20260905230113 | 83 | 90 | 7.0 | 10.0 | 0.00 | 0.00 | 0.00 | 80 | 1233.4 |
| 20260905225612 | 83 | 87 | 5.0 | 6.0 | 0.00 | 0.00 | 0.00 | 80 | 1233.4 |
| 20260905225108 | 84 | 90 | 2.0 | 3.0 | 0.00 | 0.00 | 0.00 | 80 | 1233.4 |
| 20260905224607 | 84 | 87 | 6.0 | 6.0 | 0.00 | 0.00 | 0.00 | 80 | 1233.4 |
| 20260905224107 | 85 | 42 | 5.0 | 6.0 | 0.00 | 0.00 | 0.00 | 80 | 1233.4 |
| 20260905223604 | 85 | 8 | 5.0 | 8.0 | 0.00 | 0.00 | 0.00 | 79 | 1233.4 |
| 20260905223101 | 86 | 43 | 6.0 | 8.0 | 0.00 | 0.00 | 0.00 | 79 | 1233.4 |
| 20260905222600 | 86 | 358 | 5.0 | 10.0 | 0.00 | 0.00 | 0.00 | 80 | 1233.4 |
| 20260905222055 | 87 | 84 | 3.0 | 5.0 | 0.00 | 0.00 | 0.00 | 79 | 1233.4 |
| 20260905221552 | 87 | 30 | 6.0 | 6.0 | 0.00 | 0.00 | 0.00 | 78 | 1233.4 |
| 20260905221047 | 87 | 153 | 5.0 | 6.0 | 0.00 | 0.00 | 0.00 | 78 | 1233.4 |
| 20260905220543 | 87 | 233 | 2.0 | 3.0 | 0.00 | 0.00 | 0.00 | 77 | 1233.4 |
| 20260905220039 | 88 | 26 | 3.0 | 6.0 | 0.00 | 0.00 | 0.00 | 74 | 1233.4 |
| 20260905215538 | 88 | 143 | 2.0 | 3.0 | 0.00 | 0.00 | 0.00 | 75 | 1233.4 |
| 20260905215034 | 88 | 232 | 4.0 | 8.0 | 0.00 | 0.00 | 0.00 | 75 | 1233.4 |
| 20260905214530 | 89 | 25 | 6.0 | 8.0 | 0.00 | 0.00 | 0.00 | 73 | 1233.4 |
| 20260905214025 | 88 | 59 | 2.0 | 3.0 | 0.00 | 0.00 | 0.00 | 74 | 1233.4 |
| 20260905213520 | 88 | 98 | 6.0 | 8.0 | 0.00 | 0.00 | 0.00 | 74 | 1233.4 |
| 20260905213016 | 88 | 4 | 3.0 | 3.0 | 0.00 | 0.00 | 0.00 | 75 | 1233.4 |
| 20260905212511 | 89 | 75 | 3.0 | 6.0 | 0.00 | 0.00 | 0.00 | 72 | 1233.4 |
| 20260905212010 | 89 | 314 | 9.0 | 13.0 | 0.00 | 0.00 | 0.00 | 74 | 1233.4 |
| 20260905211505 | 89 | 19 | 3.0 | 5.0 | 0.00 | 0.00 | 0.00 | 73 | 1233.4 |
| 20260905211001 | 90 | 63 | 6.0 | 8.0 | 0.00 | 0.00 | 0.00 | 73 | 1233.4 |
| 20260905210457 | 91 | 256 | 2.0 | 3.0 | 0.00 | 0.00 | 0.00 | 72 | 1233.4 |
| 20260905205955 | 90 | 279 | 1.0 | 2.0 | 0.00 | 0.00 | 0.00 | 73 | 1233.4 |
| 20260905205451 | 89 | 342 | 6.0 | 8.0 | 0.00 | 0.00 | 0.00 | 74 | 1233.4 |
| 20260905204949 | 89 | 324 | 6.0 | 8.0 | 0.00 | 0.00 | 0.00 | 73 | 1233.4 |
| 20260905204445 | 90 | 284 | 4.0 | 5.0 | 0.00 | 0.00 | 0.00 | 73 | 1233.4 |
| 20260905203944 | 90 | 171 | 2.0 | 5.0 | 0.00 | 0.00 | 0.00 | 71 | 1233.4 |
| 20260905203440 | 89 | 279 | 2.0 | 2.0 | 0.00 | 0.00 | 0.00 | 73 | 1233.4 |
| 20260905202936 | 91 | 13 | 3.0 | 5.0 | 0.00 | 0.00 | 0.00 | 73 | 1233.4 |
| 20260905202431 | 91 | 265 | 1.0 | 2.0 | 0.00 | 0.00 | 0.00 | 73 | 1233.4 |
| 20260905201926 | 90 | 331 | 4.0 | 5.0 | 0.00 | 0.00 | 0.00 | 72 | 1233.4 |
| 20260905201421 | 90 | 215 | 5.0 | 6.0 | 0.00 | 0.00 | 0.00 | 72 | 1233.4 |
| 20260905200921 | 90 | 252 | 3.0 | 5.0 | 0.00 | 0.00 | 0.00 | 74 | 1233.4 |
| 20260905200417 | 90 | 26 | 5.0 | 6.0 | 0.00 | 0.00 | 0.00 | 72 | 1233.4 |
| 20260905195915 | 91 | 274 | 6.0 | 8.0 | 0.00 | 0.00 | 0.00 | 72 | 1233.4 |
| 20260905195410 | 91 | 56 | 4.0 | 5.0 | 0.00 | 0.00 | 0.00 | 70 | 1233.4 |
| 20260905194906 | 90 | 69 | 4.0 | 6.0 | 0.00 | 0.00 | 0.00 | 72 | 1233.4 |
| 20260905194406 | 90 | 41 | 2.0 | 3.0 | 0.00 | 0.00 | 0.00 | 73 | 1233.4 |
| 20260905193906 | 90 | 64 | 3.0 | 5.0 | 0.00 | 0.00 | 0.00 | 73 | 1233.4 |
| 20260905193400 | 90 | 60 | 3.0 | 5.0 | 0.00 | 0.00 | 0.00 | 73 | 1233.4 |
| 20260905192856 | 91 | 210 | 2.0 | 3.0 | 0.00 | 0.00 | 0.00 | 74 | 1233.4 |
| 20260905192351 | 91 | 356 | 3.0 | 5.0 | 0.00 | 0.00 | 0.00 | 72 | 1233.4 |
| 20260905191851 | 90 | 331 | 2.0 | 3.0 | 0.00 | 0.00 | 0.00 | 74 | 1233.4 |
| 20260905191350 | 89 | 349 | 2.0 | 5.0 | 0.00 | 0.00 | 0.00 | 75 | 1233.4 |
| 20260905190850 | 90 | 316 | 5.0 | 8.0 | 0.00 | 0.00 | 0.00 | 74 | 1233.4 |
| 20260905190348 | 90 | 310 | 5.0 | 6.0 | 0.00 | 0.00 | 0.00 | 74 | 1233.4 |
| 20260905185847 | 91 | 347 | 4.0 | 5.0 | 0.00 | 0.00 | 0.00 | 72 | 1233.4 |
| 20260905185343 | 89 | 280 | 1.0 | 2.0 | 0.00 | 0.00 | 0.00 | 75 | 1233.4 |
| 20260905184842 | 90 | 255 | 2.0 | 5.0 | 0.00 | 0.00 | 0.00 | 76 | 1233.4 |
| 20260905184341 | 90 | 6 | 2.0 | 3.0 | 0.00 | 0.00 | 0.00 | 74 | 1233.4 |
| 20260905183839 | 91 | 277 | 2.0 | 3.0 | 0.00 | 0.00 | 0.00 | 73 | 1233.4 |
| 20260905183335 | 91 | 345 | 7.0 | 10.0 | 0.00 | 0.00 | 0.00 | 73 | 1233.4 |
| 20260905182836 | 89 | 250 | 1.0 | 2.0 | 0.00 | 0.00 | 0.00 | 76 | 1233.4 |
| 20260905182335 | 89 | 320 | 3.0 | 5.0 | 0.00 | 0.00 | 0.00 | 74 | 1233.4 |
| 20260905181831 | 89 | 253 | 2.0 | 3.0 | 0.00 | 0.00 | 0.00 | 75 | 1233.4 |
| 20260905181330 | 91 | 229 | 1.0 | 2.0 | 0.00 | 0.00 | 0.00 | 72 | 1233.4 |
| 20260905180829 | 90 | 252 | 0.0 | 0.0 | 0.00 | 0.00 | 0.00 | 73 | 1233.4 |
| 20260905180325 | 89 | 322 | 1.0 | 3.0 | 0.00 | 0.00 | 0.00 | 76 | 1233.4 |
| 20260905175819 | 88 | 60 | 6.0 | 8.0 | 0.00 | 0.00 | 0.00 | 77 | 1233.4 |
| 20260905175314 | 90 | 4 | 2.0 | 2.0 | 0.00 | 0.00 | 0.00 | 74 | 1233.4 |
| 20260905174809 | 89 | 75 | 3.0 | 5.0 | 0.00 | 0.00 | 0.00 | 76 | 1233.4 |
| 20260905174305 | 88 | 43 | 6.0 | 8.0 | 0.00 | 0.00 | 0.00 | 76 | 1233.4 |
| 20260905173801 | 88 | 12 | 3.0 | 5.0 | 0.00 | 0.00 | 0.00 | 77 | 1233.4 |
| 20260905173257 | 88 | 326 | 2.0 | 3.0 | 0.00 | 0.00 | 0.00 | 77 | 1233.4 |
| 20260905172756 | 88 | 107 | 5.0 | 5.0 | 0.00 | 0.00 | 0.00 | 76 | 1233.4 |
| 20260905172254 | 88 | 51 | 3.0 | 5.0 | 0.00 | 0.00 | 0.00 | 77 | 1233.4 |
| 20260905171751 | 88 | 236 | 1.0 | 2.0 | 0.00 | 0.00 | 0.00 | 78 | 1233.4 |
| 20260905171247 | 88 | 89 | 3.0 | 5.0 | 0.00 | 0.00 | 0.00 | 77 | 1233.4 |
| 20260905170743 | 88 | 78 | 3.0 | 3.0 | 0.00 | 0.00 | 0.00 | 77 | 1233.4 |
| 20260905170239 | 87 | 21 | 5.0 | 6.0 | 0.00 | 0.00 | 0.00 | 77 | 1233.4 |
| 20260905165738 | 87 | 15 | 4.0 | 6.0 | 0.00 | 0.00 | 0.00 | 77 | 1233.4 |
| 20260905165234 | 87 | 156 | 5.0 | 6.0 | 0.00 | 0.00 | 0.00 | 78 | 1233.4 |
| 20260905164733 | 87 | 103 | 5.0 | 8.0 | 0.00 | 0.00 | 0.00 | 78 | 1233.4 |
| 20260905164228 | 87 | 93 | 4.0 | 6.0 | 0.00 | 0.00 | 0.00 | 78 | 1233.4 |
| 20260905163724 | 87 | 11 | 6.0 | 11.0 | 0.00 | 0.00 | 0.00 | 78 | 1233.4 |
| 20260905163220 | 88 | 121 | 3.0 | 6.0 | 0.00 | 0.00 | 0.00 | 77 | 1233.4 |
| 20260905162716 | 86 | 302 | 2.0 | 3.0 | 0.00 | 0.00 | 0.00 | 79 | 1233.4 |
| 20260905162216 | 86 | 116 | 9.0 | 10.0 | 0.00 | 0.00 | 0.00 | 79 | 1233.4 |